Weather History for KCPW - July, 2013

Change the Weather History Date:

Tuesday, July 16, 2013

  Actual Average (KALS) Record (KALS)
Temperature  
Mean Temperature 46 °F 65 °F  
Max Temperature 55 °F 83 °F 92 °F (2011)
Min Temperature 37 °F 47 °F 35 °F (1994)
Degree Days  
Heating Degree Days 19 1  
Month to date heating degree days 25  
Since 1 June heating degree days 193  
Since 1 July heating degree days 25  
Cooling Degree Days 0 1  
Month to date cooling degree days 16  
Year to date cooling degree days 22  
Since 1 June cooling degree days 22  
Moisture  
Dew Point 39 °F    
Average Humidity 87    
Maximum Humidity 100    
Minimum Humidity 47    
Precipitation  
Precipitation 0.00 in 0.03 in 0.51 in (1967)
Month to date precipitation 0.46  
Year to date precipitation 3.17  
Snow  
Snow 0.00 in 0.00 in 0.00 in (2002)
Month to date snowfall 0.0  
Since 1 June snowfall 0.0  
Since 1 July snowfall 0.0  
Snow Depth -    
Sea Level Pressure  
Sea Level Pressure 30.60 in    
Wind  
Wind Speed - (North)    
Max Wind Speed -    
Max Gust Speed -    
Visibility 5 miles    
Events Fog , Thunderstorm    
T = Trace of Precipitation, MM = Missing Value Source: NWS Daily Summary

Daily Weather History Graph

Daily Weather History Graph

Search for Another Location

Airport or City:

Trip Planner

Search our weather history database for the weather conditions in past years. The results will help you decide how hot, cold, wet, or windy it might be!

Date:

Astronomy

Jul. 16, 2013 Rise Set
Actual Time 5:59 AM MDT 8:27 PM MDT
Civil Twilight 5:28 AM MDT 8:57 PM MDT
Nautical Twilight 4:51 AM MDT 9:34 PM MDT
Astronomical Twilight 4:10 AM MDT 10:15 PM MDT
Moon 2:14 PM MDT (7/16) 12:26 AM MDT (7/16)
Length of Visible Light 15h 28m
Length of Day
14h 28m
First Quarter, 57% of the Moon is Illuminated
Jul 16
First Quarter
Jul 22
Full
Jul 29
Last Quarter
Aug 6
New
Aug 14
First Quarter

Hourly Weather History & Observations

Time (MDT) Temp. Dew Point Humidity Pressure Visibility Wind Dir Wind Speed Gust Speed Precip Events Conditions
12:18 AM 39.2 °F 39.2 °F 100% 30.59 in 0.2 mi North - - N/A Fog Fog
12:38 AM 41.0 °F 41.0 °F 100% 30.59 in 0.2 mi North - - N/A Fog Fog
12:58 AM 39.2 °F 39.2 °F 100% 30.59 in 0.2 mi North - - N/A Fog Fog
1:18 AM 39.2 °F 39.2 °F 100% 30.58 in 0.2 mi North - - N/A Fog Fog
1:38 AM 39.2 °F 39.2 °F 100% 30.57 in 0.2 mi North - - N/A Fog Fog
1:58 AM 39.2 °F 39.2 °F 100% 30.57 in 0.2 mi North - - N/A Fog Fog
2:18 AM 37.4 °F 37.4 °F 100% 30.57 in 0.8 mi North - - N/A   Overcast
2:38 AM 37.4 °F 37.4 °F 100% 30.57 in 7.0 mi North - - N/A   Overcast
2:58 AM 37.4 °F 37.4 °F 100% 30.57 in 7.0 mi North - - N/A   Scattered Clouds
3:18 AM 37.4 °F 37.4 °F 100% 30.57 in 5.0 mi North - - N/A   Scattered Clouds
3:38 AM 37.4 °F 37.4 °F 100% 30.56 in 3.0 mi North - - N/A   Scattered Clouds
3:58 AM 37.4 °F 37.4 °F 100% 30.56 in 2.0 mi North - - N/A   Scattered Clouds
4:18 AM 37.4 °F 37.4 °F 100% 30.55 in 1.5 mi North - - N/A   Mostly Cloudy
4:38 AM 37.4 °F 37.4 °F 100% 30.55 in 10.0 mi North - - N/A   Clear
4:58 AM 37.4 °F 37.4 °F 100% 30.54 in 10.0 mi North - - N/A   Clear
5:18 AM 37.4 °F 37.4 °F 100% 30.55 in 7.0 mi North - - N/A   Mostly Cloudy
5:38 AM 37.4 °F 37.4 °F 100% 30.55 in 7.0 mi North - - N/A   Mostly Cloudy
5:58 AM 39.2 °F 39.2 °F 100% 30.55 in 5.0 mi North - - N/A   Mostly Cloudy
6:18 AM 39.2 °F 39.2 °F 100% 30.55 in 2.5 mi North - - N/A   Scattered Clouds
6:38 AM 37.4 °F 37.4 °F 100% 30.56 in 3.0 mi North - - N/A   Mostly Cloudy
6:58 AM 41.0 °F 41.0 °F 100% 30.57 in 4.0 mi North - - N/A   Mostly Cloudy
7:18 AM 39.2 °F 39.2 °F 100% 30.57 in 0.5 mi North - - N/A Fog Fog
7:38 AM 41.0 °F 41.0 °F 100% 30.57 in 0.2 mi North - - N/A Fog Fog
7:58 AM 41.0 °F 41.0 °F 100% 30.58 in 0.2 mi North - - N/A Fog Fog
8:18 AM 41.0 °F 41.0 °F 100% 30.58 in 0.2 mi North - - N/A Fog Fog
8:38 AM 41.0 °F 41.0 °F 100% 30.59 in 0.2 mi North - - N/A Fog Fog
8:58 AM 41.0 °F 41.0 °F 100% 30.59 in 0.2 mi North - - N/A Fog Fog
9:18 AM 41.0 °F 41.0 °F 100% 30.59 in 0.2 mi North - - N/A Fog Fog
9:38 AM 41.0 °F 41.0 °F 100% 30.59 in 0.2 mi North - - N/A Fog Fog
9:58 AM 42.8 °F 42.8 °F 100% 30.59 in 0.2 mi North - - N/A Fog Fog
10:18 AM 42.8 °F 42.8 °F 100% 30.59 in 0.2 mi North - - N/A Fog Fog
10:38 AM 41.0 °F 41.0 °F 100% 30.59 in 0.2 mi North - - N/A Fog Fog
10:58 AM 42.8 °F 42.8 °F 100% 30.60 in 0.2 mi North - - N/A Fog Fog
11:18 AM 42.8 °F 42.8 °F 100% 30.61 in 0.2 mi North - - N/A Fog Fog
11:38 AM 42.8 °F 42.8 °F 100% 30.60 in 0.2 mi North - - N/A Fog Fog
11:58 AM 42.8 °F 42.8 °F 100% 30.60 in 0.2 mi North - - N/A Fog Fog
12:18 PM 44.6 °F 44.6 °F 100% 30.61 in 0.2 mi North - - N/A Fog Fog
12:38 PM 44.6 °F 44.6 °F 100% 30.61 in 1.0 mi North - - N/A   Overcast
12:58 PM 44.6 °F 44.6 °F 100% 30.61 in 0.5 mi North - - N/A Fog Fog
1:18 PM 44.6 °F 44.6 °F 100% 30.61 in 0.2 mi North - - N/A Fog Fog
1:38 PM 44.6 °F 44.6 °F 100% 30.61 in 0.2 mi North - - N/A Fog Fog
1:58 PM 44.6 °F 44.6 °F 100% 30.61 in 0.5 mi North - - N/A Fog Fog
2:18 PM 44.6 °F 44.6 °F 100% 30.61 in 5.0 mi North - - N/A   Overcast
2:38 PM 46.4 °F 44.6 °F 93% 30.61 in 5.0 mi North - - N/A   Overcast
2:58 PM 46.4 °F 44.6 °F 93% 30.61 in 10.0 mi North - - N/A   Overcast
3:18 PM 51.8 °F 42.8 °F 71% 30.60 in 10.0 mi North - - N/A   Mostly Cloudy
3:38 PM 53.6 °F 39.2 °F 58% 30.59 in 10.0 mi North - - N/A   Mostly Cloudy
3:58 PM 53.6 °F 35.6 °F 51% 30.59 in 10.0 mi North - - N/A   Scattered Clouds
4:18 PM 55.4 °F 35.6 °F 47% 30.60 in 10.0 mi North - - N/A   Clear
4:38 PM 53.6 °F 33.8 °F 47% 30.59 in 10.0 mi North - - N/A Thunderstorm Clear
4:58 PM 53.6 °F 35.6 °F 51% 30.59 in 10.0 mi North - - N/A   Clear
5:18 PM 51.8 °F 33.8 °F 50% 30.60 in 10.0 mi North - - N/A   Scattered Clouds
5:38 PM 51.8 °F 32.0 °F 47% 30.60 in 10.0 mi North - - N/A   Scattered Clouds
5:58 PM 51.8 °F 33.8 °F 50% 30.60 in 10.0 mi North - - N/A Thunderstorm Thunderstorm
6:18 PM 51.8 °F 33.8 °F 50% 30.59 in 10.0 mi North - - N/A Thunderstorm Scattered Clouds
6:38 PM 51.8 °F 32.0 °F 47% 30.60 in 10.0 mi North - - N/A   Scattered Clouds
6:58 PM 50.0 °F 32.0 °F 50% 30.60 in 10.0 mi North - - N/A Thunderstorm Clear
7:18 PM 50.0 °F 33.8 °F 54% 30.62 in 10.0 mi North - - N/A Thunderstorm Scattered Clouds
7:38 PM 50.0 °F 41.0 °F 71% 30.62 in 10.0 mi North - - N/A Thunderstorm Overcast
7:58 PM 48.2 °F 42.8 °F 82% 30.63 in 10.0 mi North - - N/A   Overcast
8:18 PM 46.4 °F 42.8 °F 87% 30.64 in 10.0 mi North - - N/A   Overcast
8:38 PM 46.4 °F 42.8 °F 87% 30.64 in 10.0 mi North - - N/A   Overcast
8:58 PM 46.4 °F 42.8 °F 87% 30.64 in 10.0 mi North - - N/A Thunderstorm Mostly Cloudy
9:18 PM 44.6 °F 37.4 °F 76% 30.65 in 10.0 mi North - - N/A   Mostly Cloudy
9:38 PM 44.6 °F 35.6 °F 71% 30.67 in 10.0 mi North - - N/A   Mostly Cloudy
9:58 PM 44.6 °F 35.6 °F 71% 30.67 in 10.0 mi North - - N/A   Scattered Clouds
10:18 PM 44.6 °F 35.6 °F 71% 30.68 in 10.0 mi North - - N/A   Clear
10:38 PM 42.8 °F 35.6 °F 76% 30.68 in 10.0 mi North - - N/A   Scattered Clouds
10:58 PM 42.8 °F 35.6 °F 76% 30.68 in 10.0 mi North - - N/A   Scattered Clouds
11:18 PM 42.8 °F 35.6 °F 76% 30.69 in 10.0 mi North - - N/A   Clear
11:38 PM 41.0 °F 35.6 °F 81% 30.69 in 10.0 mi North - - N/A   Clear
11:58 PM 42.8 °F 35.6 °F 76% 30.69 in 10.0 mi North - - N/A   Clear